[Date Prev][Date Next][Thread Prev][Thread Next] - [Date Index][Thread Index][Author Index]

2 Line ISS Keps 6-21



ISS
1 25544U 98067A   02172.12881506  .00021319  00000-0  28519-3 0  5847
2 25544  51.6384  33.1420 0006780 260.5897 240.5270 15.57947890204641


----
Via the sarex mailing list at AMSAT.ORG courtesy of AMSAT-NA.
To unsubscribe, send "unsubscribe sarex" to Majordomo@amsat.org



AMSAT Top AMSAT Home